User: anonymous   Login
Location: Writing-on-Stone Provincial Park
(49.0825°N, 111.6163°W)
Time: 06:38:22
(UTC-06:00)
Language:

BREEZE-M DEB (TANK) - Orbit

View from above orbital plane
View from above orbital plane
View from above satellite
View from above satellite

Ground track
Ground track

The orbit data is extracted from the following two-line orbital elements,

1 29649U 06056B   15090.07065610  .00002703  00000-0  77722-3 0  9997
2 29649 049.4930 103.3486 5382687 018.1768 005.9220 04.96212376147444
Epoch (UTC): 31 March 2015 01:41:44
Eccentricity: 0.5382687
inclination: 49.4930°
perigee height: 326 km
apogee height: 15957 km
right ascension of ascending node: 103.3486°
argument of perigee: 18.1768°
revolutions per day: 4.96212376
mean anomaly at epoch: 5.9220°
orbit number at epoch: 14744

The dashed part of the orbit path shows where the satellite is in the earth's shadow,  

DLR